Hourly Weather Jutiapa

Today, 28 January, Thursday

Time Temperature Precipitation Wind Pressure Humidity
00:00 +18°C° 0 mm 2 mps 673 mmHg 88%
01:00 +17°C° 0 mm 2 mps 673 mmHg 89%
02:00 +17°C° 0 mm 2 mps 673 mmHg 90%
03:00 +16°C° 0 mm 2 mps 673 mmHg 90%
04:00 +16°C° 0 mm 2 mps 673 mmHg 90%
05:00 +16°C° 0 mm 2 mps 673 mmHg 90%
06:00 +16°C° 0 mm 2 mps 673 mmHg 90%
07:00 +18°C° 0 mm 3 mps 674 mmHg 82%
08:00 +20°C° 0 mm 3 mps 675 mmHg 74%
09:00 +22°C° 0 mm 4 mps 676 mmHg 65%
10:00 +25°C° 0 mm 4 mps 676 mmHg 57%
11:00 +27°C° 0 mm 5 mps 676 mmHg 49%
12:00 +28°C° 0 mm 6 mps 676 mmHg 40%
13:00 +28°C° 0 mm 6 mps 675 mmHg 40%
14:00 +28°C° 0 mm 6 mps 675 mmHg 41%
15:00 +28°C° 0 mm 6 mps 674 mmHg 41%
16:00 +26°C° 0 mm 5 mps 674 mmHg 47%
17:00 +25°C° 0 mm 5 mps 674 mmHg 54%
18:00 +22°C° 0 mm 4 mps 673 mmHg 60%
19:00 +21°C° 0 mm 4 mps 673 mmHg 67%
20:00 +20°C° 0 mm 3 mps 674 mmHg 74%
21:00 +18°C° 0 mm 3 mps 674 mmHg 81%
22:00 +18°C° 0 mm 4 mps 674 mmHg 82%
23:00 +18°C° 0 mm 4 mps 673 mmHg 82%

Tomorrow, 29 January, Friday

Time Temperature Precipitation Wind Pressure Humidity
00:00 +17°C° 0 mm 4 mps 673 mmHg 83%
01:00 +17°C° 0 mm 4 mps 673 mmHg 83%
02:00 +15°C° 0 mm 4 mps 672 mmHg 82%
03:00 +15°C° 0 mm 4 mps 672 mmHg 81%
04:00 +15°C° 0 mm 4 mps 672 mmHg 78%
05:00 +15°C° 0 mm 4 mps 672 mmHg 75%
06:00 +15°C° 0 mm 4 mps 673 mmHg 72%
07:00 +17°C° 0 mm 4 mps 673 mmHg 62%
08:00 +19°C° 0 mm 4 mps 674 mmHg 52%
09:00 +21°C° 0 mm 5 mps 675 mmHg 42%
10:00 +23°C° 0 mm 5 mps 675 mmHg 40%
11:00 +25°C° 0 mm 5 mps 675 mmHg 37%
12:00 +27°C° 0 mm 6 mps 675 mmHg 35%
13:00 +27°C° 0 mm 6 mps 674 mmHg 34%
14:00 +28°C° 0 mm 6 mps 674 mmHg 34%
15:00 +28°C° 0 mm 6 mps 673 mmHg 33%
16:00 +26°C° 0 mm 5 mps 673 mmHg 38%
17:00 +23°C° 0 mm 4 mps 672 mmHg 43%
18:00 +21°C° 0 mm 3 mps 672 mmHg 48%
19:00 +19°C° 0 mm 3 mps 672 mmHg 55%
20:00 +18°C° 0 mm 3 mps 673 mmHg 62%
21:00 +17°C° 0 mm 3 mps 673 mmHg 69%
22:00 +17°C° 0 mm 3 mps 673 mmHg 70%
23:00 +17°C° 0 mm 3 mps 673 mmHg 71%

Day after tomorrow, 30 January, Saturday

Time Temperature Precipitation Wind Pressure Humidity
00:00 +16°C° 0 mm 3 mps 672 mmHg 73%
01:00 +16°C° 0 mm 3 mps 672 mmHg 74%
02:00 +16°C° 0 mm 3 mps 671 mmHg 76%
03:00 +14°C° 0 mm 3 mps 671 mmHg 78%
04:00 +14°C° 0 mm 3 mps 671 mmHg 80%
05:00 +15°C° 0 mm 2 mps 671 mmHg 81%
06:00 +15°C° 0 mm 2 mps 671 mmHg 82%
07:00 +17°C° 0 mm 3 mps 672 mmHg 74%
08:00 +20°C° 0 mm 3 mps 673 mmHg 65%
09:00 +22°C° 0 mm 3 mps 674 mmHg 56%
10:00 +25°C° 0 mm 4 mps 674 mmHg 51%
11:00 +27°C° 0 mm 4 mps 674 mmHg 46%
12:00 +29°C° 0 mm 4 mps 674 mmHg 41%
13:00 +29°C° 0 mm 4 mps 673 mmHg 41%
14:00 +29°C° 0 mm 4 mps 673 mmHg 41%
15:00 +29°C° 0 mm 3 mps 672 mmHg 40%
16:00 +27°C° 0 mm 3 mps 672 mmHg 49%
17:00 +25°C° 0 mm 2 mps 671 mmHg 58%
18:00 +21°C° 0 mm 2 mps 671 mmHg 67%
19:00 +20°C° 0 mm 2 mps 671 mmHg 73%
20:00 +19°C° 0 mm 2 mps 671 mmHg 78%
21:00 +18°C° 0 mm 2 mps 672 mmHg 84%
22:00 +18°C° 0 mm 2 mps 672 mmHg 85%
23:00 +17°C° 0 mm 2 mps 672 mmHg 87%

31 January, Sunday

Time Temperature Precipitation Wind Pressure Humidity
00:00 +17°C° 0 mm 2 mps 672 mmHg 88%
01:00 +17°C° 0 mm 2 mps 671 mmHg 88%
02:00 +16°C° 0 mm 2 mps 671 mmHg 89%
03:00 +16°C° 0 mm 2 mps 671 mmHg 89%
04:00 +16°C° 0 mm 2 mps 671 mmHg 89%
05:00 +16°C° 0 mm 2 mps 671 mmHg 90%
06:00 +15°C° 0 mm 2 mps 671 mmHg 90%
07:00 +18°C° 0 mm 2 mps 672 mmHg 79%
08:00 +21°C° 0 mm 2 mps 673 mmHg 67%
09:00 +24°C° 0 mm 2 mps 674 mmHg 56%
10:00 +26°C° 0 mm 2 mps 674 mmHg 48%
11:00 +28°C° 0 mm 2 mps 674 mmHg 41%
12:00 +30°C° 0 mm 2 mps 674 mmHg 34%
13:00 +30°C° 0 mm 3 mps 673 mmHg 34%
14:00 +30°C° 0 mm 3 mps 673 mmHg 34%
15:00 +30°C° 0 mm 3 mps 672 mmHg 34%
16:00 +28°C° 0 mm 2 mps 672 mmHg 43%
17:00 +25°C° 0 mm 2 mps 671 mmHg 53%
18:00 +23°C° 0 mm 1 mps 671 mmHg 63%
19:00 +21°C° 0 mm 1 mps 671 mmHg 68%
20:00 +20°C° 0 mm 1 mps 672 mmHg 74%
21:00 +19°C° 0 mm 1 mps 672 mmHg 80%
22:00 +18°C° 0 mm 2 mps 672 mmHg 82%
23:00 +18°C° 0 mm 2 mps 672 mmHg 84%

1 February, Monday

Time Temperature Precipitation Wind Pressure Humidity
00:00 +17°C° 0 mm 2 mps 672 mmHg 86%
01:00 +17°C° 0 mm 2 mps 672 mmHg 88%
02:00 +17°C° 0 mm 2 mps 672 mmHg 89%
03:00 +16°C° 0 mm 2 mps 671 mmHg 90%
04:00 +16°C° 0 mm 2 mps 672 mmHg 91%
05:00 +16°C° 0 mm 2 mps 672 mmHg 92%
06:00 +16°C° 0 mm 2 mps 672 mmHg 93%
07:00 +18°C° 0 mm 3 mps 673 mmHg 83%
08:00 +20°C° 0 mm 3 mps 674 mmHg 72%
09:00 +23°C° 0 mm 4 mps 675 mmHg 61%
10:00 +25°C° 0 mm 4 mps 675 mmHg 55%
11:00 +27°C° 0 mm 4 mps 675 mmHg 48%
12:00 +29°C° 0 mm 5 mps 675 mmHg 42%
13:00 +29°C° 0 mm 5 mps 674 mmHg 42%
14:00 +29°C° 0 mm 5 mps 674 mmHg 43%
15:00 +29°C° 0 mm 5 mps 673 mmHg 43%
16:00 +27°C° 0 mm 4 mps 673 mmHg 50%
17:00 +25°C° 0 mm 4 mps 673 mmHg 57%
18:00 +22°C° 0 mm 3 mps 672 mmHg 64%
19:00 +21°C° 0 mm 3 mps 673 mmHg 69%
20:00 +20°C° 0 mm 3 mps 673 mmHg 75%
21:00 +19°C° 0 mm 3 mps 673 mmHg 80%
22:00 +19°C° 0 mm 3 mps 673 mmHg 84%
23:00 +18°C° 0 mm 3 mps 673 mmHg 87%

2 February, Tuesday

Time Temperature Precipitation Wind Pressure Humidity
00:00 +17°C° 0 mm 2 mps 672 mmHg 91%
01:00 +17°C° 0 mm 2 mps 672 mmHg 92%
02:00 +17°C° 0 mm 3 mps 672 mmHg 93%
03:00 +17°C° 0 mm 3 mps 671 mmHg 94%
04:00 +16°C° 0 mm 3 mps 671 mmHg 93%
05:00 +16°C° 0 mm 3 mps 671 mmHg 92%
06:00 +16°C° 0 mm 3 mps 672 mmHg 92%
07:00 +18°C° 0 mm 3 mps 672 mmHg 80%
08:00 +20°C° 0 mm 4 mps 673 mmHg 68%
09:00 +22°C° 0 mm 4 mps 674 mmHg 56%
10:00 +25°C° 0 mm 4 mps 674 mmHg 50%
11:00 +26°C° 0 mm 4 mps 674 mmHg 45%
12:00 +28°C° 0 mm 4 mps 674 mmHg 40%
13:00 +28°C° 0 mm 5 mps 674 mmHg 40%
14:00 +28°C° 0 mm 5 mps 673 mmHg 40%
15:00 +29°C° 0 mm 5 mps 672 mmHg 40%
16:00 +27°C° 0 mm 4 mps 672 mmHg 47%
17:00 +25°C° 0 mm 3 mps 672 mmHg 53%
18:00 +22°C° 0 mm 3 mps 671 mmHg 59%
19:00 +21°C° 0 mm 3 mps 672 mmHg 66%
20:00 +19°C° 0 mm 2 mps 672 mmHg 72%
21:00 +18°C° 0 mm 2 mps 672 mmHg 79%
22:00 +17°C° 0 mm 2 mps 672 mmHg 82%
23:00 +17°C° 0 mm 2 mps 672 mmHg 86%
Show more

We Need Your Consent

Meteoprog and our Service Providers may store and access personal data such as cookies, device identifiers or other similar technologies on your device and process such data to personalise content and ads, as well as provide social media features and to analyse the traffic.

  • Store and/or access information on your device

    Cookies, device identifiers or other information can be stored or accessed on your device for the purposes indicated above.

  • Personalised ads and content, ad and content measurement, audience insights, and products development

    Ads and content can be personalised based on a profile. More data can be added to better personalise ads and content. Ad and content performance can be measured. Insights about the audience who saw the ads and content can be derived. Such data can be used to develop or improve user’s experience, systems and software.

By clicking ‘I Agree’ you will allow the use of indicated cookies, device identifiers, web beacons or other similar technologies. Your settings can be changed in the browser on your device.

For certain purposes, legitimate interests may be relied on, rather than consent. You can read more about this in our Privacy and Cookie Policy.